Temp
-10 -11 -11 -11 -11 -11 -11 -11 -11 -10 -9 -9 -9 -8 -8 -8 -7 -7 -8 -8 -9 -8 -8 -8 -8 -8 -8 -8 -8 -8 -8 -9 -8 -8 -8 -9 -8 -9 -9 -9 -9 -8 -8 -9 -9 -8 -8 -8 -8 -9 -8 -8 -7 -7
-11 -11 -11 -11 -11 -11 -11 -11 -11 -10 -9 -9 -9 -8 -8 -8 -8 -7 -8 -8 -9 -9 -8 -8 -9 -9 -8 -8 -8 -8 -8 -8 -8 -8 -8 -8 -9 -9 -9 -9 -9 -9 -9 -9 -9 -10 -9 -9 -9 -9 -8 -8 -7 -7
-11 -11 -11 -11 -11 -11 -11 -11 -11 -10 -9 -9 -9 -8 -8 -8 -8 -8 -8 -8 -8 -9 -9 -9 -9 -9 -8 -8 -8 -8 -8 -8 -8 -9 -8 -9 -9 -9 -9 -9 -8 -9 -8 -9 -9 -10 -10 -10 -9 -9 -8 -8 -8 -7
-11 -12 -12 -11 -12 -12 -11 -11 -11 -10 -9 -8 -8 -8 -8 -8 -8 -8 -8 -8 -8 -8 -8 -9 -8 -8 -8 -8 -8 -9 -8 -8 -8 -8 -8 -8 -9 -9 -9 -9 -8 -8 -8 -8 -9 -9 -9 -9 -9 -9 -8 -8 -8 -8
-12 -12 -12 -12 -12 -12 -12 -12 -11 -10 -10 -9 -9 -9 -9 -9 -8 -8 -8 -8 -9 -8 -8 -9 -9 -9 -9 -9 -9 -9 -9 -9 -9 -8 -8 -8 -9 -9 -9 -9 -9 -8 -8 -9 -9 -9 -9 -9 -9 -8 -8 -8 -8 -8
-12 -12 -12 -12 -12 -12 -12 -12 -12 -10 -10 -10 -10 -9 -9 -9 -9 -9 -9 -9 -9 -9 -9 -9 -9 -9 -9 -9 -10 -9 -10 -10 -9 -9 -9 -9 -9 -9 -9 -9 -9 -9 -9 -9 -9 -9 -9 -9 -9 -9 -9 -9 -9 -9
-12 -12 -12 -12 -12 -12 -12 -12 -11 -11 -11 -11 -10 -9 -9 -9 -9 -9 -9 -9 -9 -9 -9 -9 -9 -9 -9 -9 -9 -10 -10 -10 -10 -10 -9 -9 -10 -10 -9 -9 -9 -9 -9 -9 -9 -10 -9 -9 -9 -9 -9 -9 -9 -8
-12 -12 -12 -12 -12 -12 -12 -12 -12 -13 -13 -12 -10 -10 -10 -9 -9 -9 -9 -9 -9 -9 -9 -9 -9 -10 -9 -10 -10 -10 -10 -11 -10 -10 -10 -10 -10 -10 -10 -9 -9 -9 -9 -9 -9 -9 -9 -9 -9 -9 -9 -8 -8 -8
-12 -12 -12 -12 -12 -12 -12 -12 -13 -13 -14 -12 -11 -11 -10 -10 -10 -10 -9 -9 -9 -10 -10 -9 -9 -9 -10 -10 -10 -10 -11 -11 -11 -10 -10 -10 -10 -10 -9 -9 -9 -9 -10 -10 -10 -10 -10 -9 -9 -9 -8 -8 -8 -8
-13 -12 -13 -12 -12 -12 -13 -13 -13 -14 -14 -13 -12 -12 -11 -11 -10 -10 -10 -10 -10 -10 -10 -9 -10 -9 -10 -10 -10 -11 -11 -11 -11 -11 -10 -10 -10 -10 -9 -9 -9 -9 -10 -10 -10 -10 -10 -9 -9 -8 -8 -8 -8 -8
-13 -13 -13 -13 -12 -12 -12 -13 -14 -14 -14 -13 -13 -12 -11 -11 -11 -11 -11 -10 -10 -10 -10 -10 -10 -10 -10 -11 -11 -11 -11 -11 -11 -10 -10 -10 -10 -9 -9 -9 -9 -10 -10 -10 -10 -10 -10 -9 -9 -9 -9 -9 -9 -9
-13 -13 -13 -13 -12 -12 -13 -14 -14 -14 -14 -13 -12 -12 -12 -12 -11 -11 -11 -11 -10 -10 -11 -11 -10 -10 -11 -11 -11 -11 -11 -11 -10 -10 -10 -9 -8 -9 -9 -9 -9 -9 -9 -9 -9 -9 -9 -9 -9 -9 -9 -9 -9 -9
-14 -14 -13 -13 -13 -13 -14 -14 -14 -14 -14 -13 -13 -13 -12 -12 -11 -11 -11 -11 -10 -11 -11 -11 -10 -10 -11 -11 -11 -11 -10 -10 -10 -9 -9 -9 -9 -8 -9 -9 -9 -9 -9 -9 -9 -9 -9 -9 -9 -9 -9 -9 -10 -10
-14 -14 -14 -13 -13 -13 -14 -14 -14 -14 -14 -13 -13 -12 -11 -11 -11 -11 -11 -11 -10 -11 -11 -11 -11 -11 -11 -11 -10 -10 -10 -10 -9 -9 -9 -8 -8 -8 -8 -9 -9 -9 -9 -9 -9 -9 -9 -9 -9 -10 -10 -10 -10 -11
-14 -14 -14 -14 -14 -14 -14 -14 -14 -14 -14 -13 -12 -12 -12 -11 -11 -11 -11 -11 -11 -11 -11 -11 -11 -11 -11 -10 -10 -10 -10 -10 -9 -9 -8 -8 -8 -8 -9 -9 -9 -9 -9 -9 -9 -9 -10 -10 -10 -10 -10 -11 -11 -11
-14 -14 -14 -14 -14 -14 -14 -14 -14 -14 -13 -13 -13 -12 -11 -11 -11 -11 -11 -11 -11 -11 -11 -11 -11 -10 -10 -10 -10 -10 -10 -9 -9 -9 -8 -8 -8 -9 -9 -9 -9 -9 -9 -9 -10 -10 -10 -10 -10 -10 -11 -11 -11 -11
-14 -14 -13 -14 -14 -14 -14 -14 -14 -14 -13 -12 -12 -12 -11 -11 -10 -10 -10 -10 -11 -11 -11 -11 -10 -10 -10 -10 -10 -9 -9 -9 -9 -9 -8 -8 -9 -9 -9 -9 -9 -9 -10 -10 -10 -10 -10 -10 -10 -11 -11 -12 -12 -12
-13 -14 -14 -14 -14 -14 -14 -14 -14 -13 -13 -12 -12 -11 -11 -11 -11 -10 -10 -10 -10 -10 -11 -11 -10 -10 -10 -9 -9 -9 -9 -9 -9 -8 -8 -8 -9 -9 -9 -9 -10 -10 -10 -10 -10 -10 -11 -11 -11 -12 -12 -13 -13 -13
-14 -14 -14 -14 -14 -14 -15 -15 -14 -13 -13 -12 -12 -11 -11 -11 -11 -10 -10 -10 -10 -10 -11 -11 -10 -9 -9 -9 -9 -9 -9 -9 -9 -9 -9 -9 -9 -9 -9 -10 -10 -10 -10 -10 -10 -11 -11 -12 -12 -13 -13 -13 -14 -14
-14 -14 -14 -15 -15 -15 -15 -14 -14 -13 -13 -12 -12 -11 -11 -11 -11 -11 -10 -10 -10 -10 -11 -10 -9 -9 -9 -9 -9 -9 -9 -9 -9 -9 -9 -9 -9 -9 -9 -9 -10 -10 -10 -10 -11 -12 -12 -12 -13 -13 -13 -13 -14 -14
-15 -15 -15 -15 -15 -15 -14 -14 -13 -13 -12 -11 -11 -11 -11 -11 -10 -10 -10 -10 -10 -10 -9 -9 -9 -9 -9 -9 -9 -9 -9 -9 -9 -9 -9 -9 -9 -9 -9 -9 -10 -10 -10 -11 -11 -12 -12 -13 -13 -13 -14 -14 -15 -16
-15 -15 -15 -15 -15 -14 -13 -13 -13 -12 -12 -12 -11 -11 -11 -10 -10 -10 -10 -10 -9 -9 -9 -9 -9 -9 -9 -9 -9 -9 -9 -9 -9 -9 -9 -9 -9 -10 -10 -10 -10 -11 -11 -12 -12 -12 -13 -13 -13 -14 -14 -15 -16 -16
-15 -15 -15 -15 -15 -14 -13 -13 -12 -12 -12 -12 -11 -11 -11 -10 -10 -10 -10 -10 -9 -9 -9 -9 -9 -9 -9 -9 -9 -9 -9 -9 -9 -9 -9 -9 -10 -10 -10 -11 -11 -11 -12 -12 -12 -13 -13 -13 -14 -15 -15 -16 -17 -17
-14 -15 -15 -14 -14 -13 -13 -13 -12 -12 -12 -12 -11 -11 -11 -11 -10 -10 -10 -9 -9 -9 -9 -8 -8 -8 -8 -8 -9 -9 -9 -9 -9 -10 -10 -10 -10 -11 -11 -11 -12 -12 -12 -13 -13 -13 -14 -14 -15 -15 -16 -17 -18 -18
-15 -15 -14 -14 -13 -13 -12 -12 -12 -12 -11 -11 -11 -11 -11 -11 -11 -10 -9 -8 -8 -8 -8 -8 -8 -8 -8 -8 -8 -9 -9 -10 -10 -10 -10 -11 -11 -12 -12 -12 -13 -13 -13 -13 -13 -14 -14 -15 -15 -16 -17 -18 -18 -19
-15 -14 -13 -13 -13 -12 -12 -12 -11 -11 -11 -12 -11 -11 -11 -11 -10 -9 -8 -9 -8 -8 -8 -8 -8 -8 -8 -9 -9 -9 -10 -10 -11 -11 -11 -12 -12 -13 -13 -13 -13 -13 -13 -14 -14 -14 -15 -16 -16 -17 -18 -18 -19 -20
-14 -13 -13 -12 -12 -12 -11 -11 -11 -11 -11 -11 -11 -11 -11 -11 -10 -9 -9 -9 -9 -9 -9 -9 -9 -8 -8 -9 -9 -10 -11 -11 -11 -12 -12 -12 -13 -13 -14 -13 -13 -14 -14 -14 -15 -15 -16 -16 -17 -18 -18 -19 -20 -20
-13 -13 -12 -12 -12 -11 -11 -11 -11 -11 -11 -11 -11 -10 -10 -10 -9 -9 -10 -10 -10 -9 -9 -9 -9 -9 -9 -9 -10 -10 -11 -11 -12 -12 -12 -13 -13 -14 -14 -14 -14 -15 -15 -15 -16 -16 -17 -17 -18 -18 -19 -20 -20 -21
-13 -13 -12 -12 -12 -12 -12 -12 -11 -11 -11 -11 -11 -11 -10 -10 -10 -10 -10 -10 -10 -10 -10 -10 -10 -10 -10 -10 -10 -11 -11 -12 -12 -13 -13 -14 -14 -15 -15 -15 -15 -15 -16 -16 -16 -17 -17 -18 -19 -19 -20 -20 -21 -21
-13 -12 -12 -12 -12 -11 -11 -11 -11 -11 -11 -11 -11 -11 -10 -10 -10 -10 -10 -10 -10 -10 -10 -10 -10 -10 -11 -11 -11 -11 -12 -13 -13 -13 -14 -14 -15 -15 -15 -15 -16 -16 -16 -16 -17 -17 -18 -19 -19 -20 -21 -21 -21 -22
-12 -13 -13 -13 -12 -12 -12 -11 -12 -12 -11 -11 -11 -11 -11 -11 -11 -10 -10 -10 -10 -10 -10 -10 -11 -11 -11 -11 -12 -12 -13 -14 -14 -14 -15 -15 -15 -15 -16 -16 -16 -16 -17 -17 -18 -18 -19 -19 -20 -20 -21 -21 -21 -22
-13 -13 -13 -12 -12 -12 -12 -12 -12 -12 -12 -12 -11 -11 -11 -11 -11 -11 -10 -10 -10 -11 -11 -11 -11 -12 -12 -12 -12 -13 -14 -14 -15 -15 -16 -16 -16 -16 -17 -17 -17 -17 -17 -18 -18 -19 -19 -20 -20 -21 -21 -21 -22 -22
-13 -13 -13 -13 -12 -12 -12 -12 -12 -12 -12 -12 -12 -12 -12 -11 -11 -10 -10 -10 -11 -11 -11 -12 -12 -12 -13 -13 -13 -14 -15 -15 -16 -16 -16 -16 -16 -17 -17 -17 -18 -18 -18 -18 -19 -19 -20 -20 -21 -21 -21 -22 -22 -22
Height
2873 2881 2888 2893 2899 2905 2909 2912 2917 2920 2923 2927 2931 2936 2939 2942 2945 2948 2951 2955 2960 2962 2964 2967 2970 2972 2974 2976 2977 2977 2979 2979 2980 2980 2981 2982 2982 2982 2981 2979 2978 2977 2977 2976 2976 2976 2974 2969 2966 2963 2965 2963 2963 2964
2873 2879 2887 2892 2898 2904 2909 2912 2916 2919 2923 2927 2931 2934 2938 2942 2945 2948 2951 2954 2958 2962 2965 2968 2971 2973 2975 2976 2977 2977 2979 2979 2980 2981 2982 2982 2982 2982 2980 2980 2978 2978 2977 2975 2975 2975 2974 2971 2968 2966 2966 2965 2965 2966
2873 2880 2886 2893 2898 2903 2908 2912 2917 2920 2923 2927 2931 2935 2939 2943 2946 2948 2951 2954 2958 2962 2965 2968 2971 2974 2975 2976 2978 2979 2979 2980 2980 2981 2981 2982 2982 2981 2980 2980 2978 2977 2976 2976 2977 2975 2974 2972 2970 2969 2968 2969 2969 2968
2874 2881 2887 2892 2898 2902 2908 2912 2916 2921 2924 2929 2932 2936 2940 2943 2946 2948 2950 2954 2959 2962 2964 2969 2971 2973 2975 2977 2977 2978 2979 2980 2981 2981 2981 2981 2981 2981 2980 2980 2979 2978 2977 2976 2977 2976 2974 2973 2972 2971 2971 2971 2970 2969
2875 2881 2887 2892 2897 2903 2908 2912 2915 2920 2924 2928 2933 2937 2940 2944 2946 2948 2951 2955 2958 2964 2965 2968 2971 2973 2974 2976 2977 2978 2979 2979 2980 2980 2980 2980 2980 2981 2980 2979 2979 2978 2976 2976 2975 2976 2976 2975 2974 2974 2973 2973 2973 2972
2875 2881 2887 2893 2899 2904 2908 2912 2915 2920 2924 2928 2933 2937 2940 2944 2946 2949 2952 2957 2959 2962 2965 2968 2971 2972 2974 2975 2976 2976 2977 2977 2978 2978 2979 2979 2979 2981 2980 2979 2979 2977 2975 2975 2975 2976 2976 2976 2976 2976 2976 2975 2975 2973
2876 2882 2888 2894 2900 2905 2909 2912 2915 2919 2923 2926 2932 2936 2939 2943 2946 2950 2954 2956 2959 2962 2965 2967 2969 2971 2972 2973 2974 2974 2974 2975 2976 2976 2976 2977 2977 2978 2978 2978 2978 2977 2976 2976 2975 2975 2976 2976 2976 2976 2976 2976 2975 2973
2876 2883 2890 2894 2900 2905 2909 2912 2915 2919 2923 2926 2931 2935 2939 2942 2946 2950 2952 2955 2958 2961 2964 2966 2967 2970 2971 2972 2972 2972 2972 2972 2973 2973 2974 2975 2975 2977 2976 2976 2976 2976 2975 2975 2975 2975 2975 2976 2977 2977 2977 2976 2976 2974
2877 2884 2889 2896 2901 2906 2909 2912 2915 2920 2924 2927 2931 2935 2938 2942 2946 2949 2952 2954 2956 2962 2962 2964 2965 2968 2969 2970 2971 2971 2971 2970 2971 2970 2972 2973 2973 2973 2974 2975 2975 2975 2975 2975 2974 2974 2975 2975 2976 2977 2977 2976 2976 2975
2879 2885 2891 2897 2903 2907 2910 2913 2916 2921 2925 2928 2932 2936 2939 2943 2946 2950 2953 2955 2956 2958 2961 2962 2964 2966 2969 2969 2969 2971 2969 2969 2968 2969 2969 2970 2970 2971 2971 2972 2973 2973 2973 2973 2974 2974 2974 2975 2975 2976 2976 2976 2975 2973
2881 2887 2893 2899 2904 2907 2911 2914 2918 2922 2926 2929 2932 2936 2940 2944 2948 2951 2952 2955 2956 2958 2959 2961 2963 2964 2967 2968 2968 2969 2968 2967 2967 2968 2968 2968 2966 2967 2968 2969 2970 2971 2969 2971 2972 2973 2973 2974 2975 2975 2975 2975 2975 2974
2882 2888 2894 2900 2905 2909 2911 2915 2919 2924 2928 2931 2935 2939 2942 2946 2949 2951 2952 2954 2955 2957 2958 2959 2961 2962 2965 2966 2968 2968 2966 2965 2963 2965 2966 2965 2964 2965 2966 2968 2968 2967 2968 2969 2970 2972 2973 2973 2973 2974 2974 2973 2972 2972
2884 2890 2896 2902 2907 2911 2914 2918 2922 2927 2930 2934 2938 2941 2944 2946 2947 2948 2950 2952 2953 2955 2958 2959 2960 2961 2965 2966 2966 2966 2963 2963 2963 2962 2964 2963 2963 2963 2964 2965 2966 2967 2968 2969 2970 2970 2971 2972 2972 2972 2972 2972 2972 2971
2887 2892 2898 2904 2909 2914 2917 2921 2925 2928 2933 2936 2939 2942 2943 2944 2946 2947 2949 2951 2954 2955 2957 2959 2960 2962 2964 2965 2965 2964 2964 2963 2962 2962 2961 2961 2961 2962 2963 2964 2965 2966 2967 2968 2969 2970 2970 2971 2971 2971 2971 2971 2971 2970
2889 2894 2900 2906 2912 2916 2920 2923 2927 2931 2934 2938 2940 2942 2943 2944 2945 2948 2950 2952 2954 2955 2957 2959 2961 2962 2963 2964 2964 2963 2963 2961 2960 2960 2960 2960 2960 2961 2962 2963 2965 2966 2967 2967 2968 2968 2969 2970 2970 2971 2971 2970 2970 2969
2890 2895 2902 2908 2913 2917 2922 2925 2929 2933 2936 2938 2940 2941 2943 2944 2946 2948 2949 2952 2954 2955 2957 2959 2960 2961 2962 2963 2963 2962 2962 2961 2962 2960 2960 2960 2960 2961 2962 2963 2964 2965 2965 2966 2967 2967 2968 2969 2970 2970 2970 2969 2968 2967
2893 2895 2902 2909 2915 2919 2923 2927 2931 2935 2937 2938 2940 2941 2943 2945 2946 2948 2949 2951 2953 2955 2956 2958 2959 2960 2961 2961 2961 2961 2961 2961 2960 2960 2960 2960 2961 2961 2962 2962 2963 2964 2964 2965 2966 2967 2968 2969 2969 2969 2968 2967 2965 2964
2894 2900 2906 2911 2916 2921 2925 2928 2933 2936 2938 2939 2941 2943 2944 2945 2945 2946 2947 2949 2951 2953 2955 2957 2959 2959 2959 2959 2960 2961 2960 2960 2960 2960 2960 2960 2960 2960 2960 2960 2961 2962 2963 2964 2966 2967 2968 2967 2967 2966 2965 2963 2961 2959
2899 2905 2911 2916 2920 2923 2927 2930 2935 2937 2938 2940 2941 2943 2944 2945 2945 2946 2946 2948 2950 2951 2954 2956 2957 2957 2959 2959 2960 2959 2959 2959 2959 2959 2959 2958 2958 2957 2957 2958 2960 2961 2963 2964 2965 2966 2966 2965 2965 2963 2961 2960 2957 2955
2906 2910 2914 2917 2921 2925 2929 2931 2935 2938 2939 2941 2942 2943 2943 2944 2945 2944 2945 2946 2948 2949 2951 2953 2955 2957 2958 2959 2959 2959 2959 2959 2958 2958 2958 2957 2956 2956 2956 2957 2959 2961 2962 2963 2964 2964 2963 2963 2962 2960 2958 2956 2953 2949
2907 2911 2915 2919 2924 2928 2930 2931 2935 2937 2939 2940 2941 2941 2942 2942 2943 2943 2943 2944 2945 2946 2948 2951 2953 2955 2956 2956 2956 2957 2957 2957 2956 2956 2955 2955 2954 2954 2955 2956 2958 2959 2960 2961 2961 2961 2960 2959 2957 2955 2952 2949 2946 2942
2909 2915 2919 2923 2926 2928 2930 2931 2936 2937 2939 2939 2940 2940 2940 2940 2941 2941 2941 2941 2942 2944 2946 2949 2950 2951 2952 2952 2953 2953 2953 2953 2952 2952 2952 2952 2952 2952 2953 2954 2956 2957 2957 2957 2958 2957 2956 2954 2952 2949 2946 2943 2939 2935
2914 2918 2921 2924 2927 2928 2931 2932 2935 2937 2938 2939 2939 2938 2938 2938 2939 2940 2939 2939 2940 2942 2943 2944 2945 2946 2946 2947 2948 2948 2948 2948 2948 2948 2948 2948 2948 2949 2950 2951 2953 2953 2954 2954 2954 2953 2952 2950 2947 2944 2941 2938 2934 2930
2918 2921 2923 2924 2926 2928 2929 2931 2933 2935 2936 2937 2937 2937 2936 2936 2937 2936 2936 2936 2938 2938 2939 2940 2940 2941 2942 2942 2943 2943 2943 2943 2944 2945 2945 2945 2946 2947 2948 2949 2950 2950 2950 2950 2949 2948 2946 2944 2942 2938 2935 2931 2927 2923
2920 2923 2924 2924 2924 2926 2927 2929 2931 2932 2933 2933 2934 2934 2934 2934 2934 2933 2933 2934 2934 2935 2935 2935 2936 2936 2937 2937 2938 2938 2938 2939 2940 2941 2941 2942 2943 2944 2945 2946 2947 2947 2947 2946 2945 2943 2941 2939 2936 2933 2929 2926 2922 2918
2919 2920 2921 2920 2922 2924 2925 2926 2928 2929 2929 2930 2931 2932 2932 2932 2931 2930 2930 2931 2931 2931 2931 2932 2932 2932 2932 2932 2932 2933 2934 2934 2936 2937 2938 2939 2940 2940 2941 2942 2943 2943 2943 2942 2941 2939 2937 2934 2931 2928 2925 2921 2917 2912
2915 2916 2917 2919 2920 2922 2924 2925 2926 2926 2927 2928 2928 2929 2930 2929 2928 2928 2928 2928 2928 2929 2929 2928 2928 2927 2926 2926 2927 2928 2929 2930 2931 2933 2933 2934 2935 2936 2937 2938 2938 2939 2938 2937 2936 2934 2932 2929 2926 2922 2919 2915 2910 2906
2912 2914 2916 2918 2919 2920 2921 2922 2923 2924 2925 2926 2927 2926 2927 2926 2927 2927 2927 2927 2927 2927 2926 2926 2925 2924 2923 2923 2924 2925 2926 2927 2928 2929 2930 2931 2931 2932 2933 2933 2933 2933 2933 2932 2931 2929 2926 2923 2920 2916 2912 2909 2904 2900
2908 2911 2914 2915 2917 2917 2917 2919 2920 2921 2923 2924 2924 2924 2924 2924 2924 2924 2924 2924 2924 2923 2923 2923 2922 2922 2921 2921 2921 2922 2923 2923 2924 2925 2926 2927 2928 2929 2929 2929 2929 2928 2928 2927 2925 2923 2921 2918 2914 2911 2907 2903 2899 2894
2905 2908 2909 2910 2912 2913 2915 2916 2917 2918 2919 2919 2920 2920 2920 2920 2920 2920 2920 2920 2920 2920 2919 2919 2918 2918 2918 2918 2918 2918 2919 2919 2920 2921 2921 2922 2923 2924 2924 2925 2924 2924 2923 2922 2920 2918 2915 2912 2909 2905 2901 2897 2893 2889
2899 2902 2903 2905 2906 2908 2909 2910 2911 2912 2913 2913 2914 2914 2914 2914 2914 2914 2915 2915 2915 2915 2914 2914 2913 2913 2913 2913 2913 2913 2914 2914 2915 2916 2918 2919 2920 2920 2920 2921 2920 2920 2919 2917 2915 2913 2910 2907 2904 2900 2896 2892 2888 2884
2892 2894 2896 2896 2897 2900 2902 2903 2904 2904 2905 2905 2906 2906 2907 2907 2905 2906 2908 2908 2908 2908 2908 2908 2907 2907 2907 2907 2907 2908 2908 2909 2910 2911 2913 2915 2916 2916 2916 2916 2916 2915 2914 2913 2910 2908 2905 2902 2899 2895 2892 2888 2884 2880
2883 2885 2887 2888 2889 2890 2892 2894 2894 2894 2895 2895 2896 2897 2897 2897 2896 2897 2898 2899 2900 2899 2899 2899 2899 2899 2899 2900 2901 2902 2903 2904 2906 2907 2909 2911 2912 2912 2913 2913 2912 2911 2910 2908 2906 2903 2901 2898 2895 2891 2888 2884 2880 2876
Wind_Speed
37 33 22 19 18 17 18 19 19 13 19 22 21 17 17 16 15 16 21 21 21 15 15 12 8 10 11 10 7 8 8 5 6 6 5 3 3 7 7 6 7 1 4 8 11 9 4 12 7 7 7 6 4 5
26 25 23 19 21 22 21 22 21 13 19 21 17 14 14 14 15 16 19 20 21 17 10 12 14 13 12 9 8 10 9 6 4 5 4 3 2 4 9 5 9 5 5 0 2 3 5 7 6 7 8 6 7 7
25 22 25 21 23 21 22 20 21 14 20 20 17 14 14 15 15 14 16 17 17 14 16 16 15 12 10 8 7 7 7 8 6 4 3 3 3 5 5 7 9 5 3 4 2 1 6 7 5 8 10 9 12 13
27 20 18 20 17 18 22 20 23 17 19 23 16 15 15 14 13 13 14 16 16 18 15 17 14 12 9 6 4 4 4 5 6 6 3 3 2 3 4 1 10 7 2 3 1 3 4 6 6 8 9 10 11 10
22 21 22 18 19 20 19 17 22 19 19 22 18 17 16 14 14 14 15 17 15 12 17 17 12 9 8 6 4 3 2 2 3 0 2 1 0 2 2 0 4 7 6 2 2 3 2 3 5 7 7 8 8 8
21 22 20 23 26 23 17 16 17 18 19 23 19 17 16 16 14 13 16 16 16 10 17 13 11 8 7 7 7 6 5 3 3 4 5 3 3 4 3 3 3 7 7 4 3 4 5 4 5 5 5 6 6 7
25 27 25 25 25 19 15 13 15 19 20 19 21 18 16 15 14 13 12 15 17 14 13 10 9 8 7 6 4 4 5 3 4 5 6 6 6 6 6 7 4 4 8 3 2 2 4 4 5 5 4 3 5 6
30 28 27 23 27 19 13 11 15 21 21 19 20 20 19 16 14 12 9 12 15 16 13 6 7 10 6 3 4 5 6 6 5 8 7 6 9 6 5 6 5 2 7 5 1 2 3 4 5 3 2 4 5 5
35 27 30 26 22 18 14 14 17 21 20 18 20 19 18 16 13 10 9 11 14 15 10 8 10 9 6 4 4 6 7 7 7 9 8 7 9 8 8 7 7 5 7 6 1 3 3 2 2 1 3 7 7 6
30 29 27 23 21 17 14 14 18 22 19 18 18 17 15 16 14 12 10 10 11 12 9 9 10 8 6 4 3 3 3 4 4 2 8 11 11 14 15 10 10 9 8 6 2 2 4 3 4 4 7 6 6 7
27 28 26 23 18 14 13 18 23 24 20 18 17 14 17 16 13 9 6 7 6 5 6 9 9 10 8 6 4 3 3 3 3 4 7 5 8 13 15 13 9 8 6 6 4 5 3 4 5 6 6 6 6 7
27 27 25 23 18 13 17 23 24 21 18 16 14 18 18 13 6 5 7 5 5 5 7 6 5 8 10 8 4 3 6 4 6 8 5 4 6 7 8 9 7 5 5 5 5 4 4 4 4 5 6 6 7 7
24 25 24 24 23 17 21 24 22 18 15 16 19 15 10 4 5 6 7 6 6 8 8 4 5 13 9 6 4 4 4 2 3 3 3 4 4 6 6 5 6 6 6 6 5 3 2 2 2 4 4 5 5 4
23 24 26 27 25 21 23 23 21 19 23 18 8 9 5 5 5 5 9 10 9 9 8 7 9 8 6 4 3 3 3 3 2 3 3 3 6 5 7 8 8 8 7 5 3 2 3 3 2 2 1 1 2 4
20 22 29 30 27 24 23 21 19 25 19 10 6 4 5 5 7 8 10 8 10 9 7 9 8 6 5 3 2 3 2 3 3 3 4 5 5 6 8 8 7 7 4 3 3 2 2 2 2 2 2 4 6 8
25 31 28 30 30 27 24 21 24 24 15 6 5 5 8 7 7 9 9 10 9 11 7 8 5 4 5 3 3 3 2 1 4 2 2 3 3 5 6 6 6 4 3 3 4 5 5 3 2 3 5 7 9 12
30 31 35 33 29 25 24 21 27 22 7 5 6 7 7 6 6 8 8 7 11 11 11 6 4 4 4 3 3 3 1 4 2 3 3 3 3 4 5 5 5 5 6 6 7 6 4 1 2 4 6 9 11 14
23 36 33 30 28 25 25 22 26 13 9 11 10 10 8 4 3 5 9 12 13 13 15 9 4 7 4 4 3 2 2 3 3 3 1 2 2 3 5 6 7 7 8 9 7 5 3 3 5 6 8 11 14 17
31 30 26 22 20 21 22 23 26 7 8 11 11 7 4 3 2 3 7 10 13 15 14 15 4 7 7 4 3 4 4 4 4 3 3 6 6 6 5 7 8 10 10 8 6 4 4 6 7 8 11 15 17 20
27 24 23 23 23 23 16 16 23 5 7 9 5 5 7 6 4 5 7 10 14 16 17 18 16 5 5 3 3 6 6 6 5 6 7 6 5 6 8 10 12 11 9 7 6 6 7 8 9 12 15 18 20 22
28 24 24 22 20 15 5 15 19 4 4 6 7 7 9 8 6 7 9 10 15 19 19 17 14 12 12 12 12 11 10 9 9 9 8 8 6 7 10 12 12 11 9 8 8 9 8 10 13 16 19 21 23 24
25 24 22 20 18 13 6 16 23 9 8 5 6 6 7 9 9 9 9 13 16 15 15 14 13 13 14 15 14 13 12 13 12 9 8 8 7 8 10 12 12 11 10 11 11 10 11 13 16 19 22 24 25 26
24 22 19 18 18 9 7 18 20 15 8 6 7 8 9 11 14 9 10 12 12 10 11 12 13 15 16 16 15 15 14 13 11 9 9 9 9 11 13 13 13 12 12 13 11 11 13 15 18 21 24 25 26 27
18 22 24 9 8 8 13 15 16 12 10 9 11 11 8 7 10 12 13 10 6 8 9 11 11 13 14 14 14 14 14 14 12 10 10 9 10 11 13 13 13 13 12 13 13 14 15 18 21 23 26 27 28 28
19 18 6 6 7 10 14 18 19 16 14 11 10 9 6 6 8 11 11 8 7 8 9 10 11 13 14 15 15 14 13 13 13 12 12 11 11 12 13 13 13 13 13 13 14 15 18 21 23 25 26 27 27 28
13 9 6 6 10 9 9 9 11 13 13 12 8 7 8 8 8 6 6 5 6 7 8 10 11 13 14 14 14 14 15 14 13 12 11 10 12 14 14 14 13 13 12 13 15 16 19 22 24 25 26 26 28 29
15 5 13 11 8 10 10 10 9 7 6 5 5 8 8 5 4 3 2 1 0 2 3 4 6 8 11 12 13 13 13 14 15 14 13 13 15 15 14 13 12 12 13 14 15 18 21 23 24 25 26 27 28 28
17 16 8 8 12 13 13 10 10 10 10 11 11 11 6 4 2 5 6 7 7 8 8 8 8 7 7 9 11 13 14 15 14 13 13 14 14 13 12 13 13 13 14 15 16 19 21 23 24 25 27 28 27 28
30 21 19 20 12 10 13 15 12 11 10 9 8 8 10 8 10 11 11 11 10 10 10 10 9 10 10 9 10 11 13 13 13 13 13 13 14 14 14 13 13 14 14 16 18 20 22 23 24 25 26 26 27 29
31 26 18 17 22 26 24 22 22 18 13 13 15 15 14 13 13 13 13 13 12 12 13 14 14 13 12 11 12 12 13 13 13 13 14 15 15 14 13 13 13 14 15 16 18 20 21 22 24 24 24 26 28 27
31 35 33 27 24 24 24 22 22 23 23 22 21 20 20 20 20 20 19 18 18 17 17 17 17 16 14 14 14 14 14 15 14 14 15 15 14 14 12 13 13 13 15 17 18 19 21 22 22 23 24 26 25 25
30 32 32 32 34 36 36 36 34 31 29 28 27 26 26 27 29 29 25 24 23 22 22 22 21 19 17 17 16 16 16 16 16 17 16 15 14 13 11 12 12 13 15 16 17 19 20 20 22 23 24 23 23 24
32 35 35 33 33 33 31 29 30 31 31 30 30 30 31 32 33 33 30 25 24 25 25 24 22 21 19 19 19 18 17 16 16 15 14 14 13 11 11 11 12 13 14 16 17 18 19 20 22 22 21 22 22 23
Wind_Direction
182 184 184 177 178 180 185 183 179 181 181 177 174 169 178 177 176 180 183 186 186 188 182 171 156 161 151 137 126 112 113 111 83 89 68 67 38 13 352 341 358 81 236 207 221 222 262 299 354 87 85 70 89 127
172 172 178 181 185 195 191 186 183 189 178 175 174 172 178 174 178 179 185 186 190 195 186 170 156 147 142 130 110 96 101 112 101 105 74 81 90 35 33 31 28 26 49 346 106 109 327 335 32 80 75 80 100 103
160 170 171 172 190 190 194 187 178 175 174 179 172 181 184 182 177 172 170 176 178 187 168 168 165 160 146 130 123 102 96 92 93 105 77 77 95 47 40 22 24 34 92 69 3 358 23 23 43 74 92 101 103 96
171 172 181 187 187 187 183 189 189 186 173 180 188 190 188 183 169 156 157 167 169 166 161 159 158 155 159 155 136 118 108 89 72 66 112 82 88 41 21 57 22 26 58 131 276 343 6 35 75 98 100 97 90 81
176 189 188 191 186 181 183 185 179 176 178 178 193 188 189 179 167 150 152 165 166 166 165 160 167 178 192 204 219 211 187 320 296 288 54 207 222 209 340 255 5 10 8 331 236 178 117 106 98 84 81 89 92 90
183 183 185 176 171 171 169 169 174 182 185 189 190 188 185 179 164 155 158 170 170 169 163 158 174 176 181 193 219 240 273 272 277 227 227 232 229 215 260 284 343 5 11 26 94 118 126 130 111 94 83 81 83 76
174 178 167 173 170 169 168 171 179 182 180 182 184 180 177 177 176 172 171 178 179 172 161 151 164 170 170 181 210 264 282 272 244 215 210 222 229 220 240 262 298 2 15 6 80 91 128 117 91 87 82 53 38 36
176 169 170 178 167 167 174 182 173 168 167 179 176 177 180 179 177 173 164 171 181 189 185 177 177 180 194 227 268 283 293 303 267 233 226 222 223 220 245 258 228 301 348 344 196 181 142 123 106 111 46 7 349 349
165 168 166 169 173 173 170 168 163 165 163 171 170 172 173 174 169 162 161 168 183 189 180 190 178 181 202 199 248 266 274 271 252 241 229 228 210 223 241 244 232 259 304 292 244 148 148 179 159 256 313 325 323 339
160 165 162 160 163 165 165 169 159 152 163 167 168 164 164 166 162 158 156 158 167 180 175 172 178 164 190 211 237 244 262 247 269 219 207 224 226 232 245 255 258 279 260 244 254 194 192 233 275 316 321 322 331 336
159 162 166 163 167 167 172 168 155 163 164 162 160 158 160 158 156 152 151 159 164 171 184 197 216 229 221 210 229 243 262 240 249 212 194 217 244 243 245 250 247 245 250 240 229 209 224 265 293 310 310 313 312 321
159 163 169 172 166 150 158 156 159 163 159 156 155 149 143 135 146 159 161 164 156 159 153 177 194 192 187 195 211 261 263 234 229 190 198 235 258 226 214 215 227 234 226 208 195 193 222 261 278 297 313 322 326 326
166 167 171 168 165 153 149 154 158 153 150 146 142 142 151 151 158 169 172 159 158 152 162 150 176 169 171 186 215 256 267 255 312 172 211 244 207 191 189 184 186 178 171 168 166 174 213 256 276 287 298 308 315 326
163 166 169 169 167 161 159 160 161 156 150 152 135 143 163 170 169 153 156 153 144 148 149 144 150 172 182 200 252 268 269 287 261 231 229 198 184 175 169 174 170 165 153 144 145 168 197 218 244 279 309 347 354 342
170 172 165 167 165 165 160 166 167 159 156 147 142 147 167 164 162 173 175 157 163 160 163 176 183 191 194 229 256 276 261 247 258 269 207 195 199 182 175 170 163 152 147 163 183 174 142 123 113 79 19 347 335 330
169 163 160 165 166 165 167 170 169 163 158 143 149 180 168 164 162 169 178 182 177 184 168 175 183 193 196 217 222 250 280 33 342 10 140 170 172 170 173 170 170 181 187 167 147 133 122 107 61 355 336 324 317 315
158 175 168 163 164 167 174 174 171 170 171 176 174 171 168 169 189 207 211 194 191 193 179 161 173 165 186 215 228 237 253 323 343 24 87 117 148 178 192 198 202 184 171 157 142 140 143 159 299 307 309 309 315 318
154 161 162 164 165 169 177 178 177 173 175 193 169 143 111 101 188 221 215 204 197 200 191 176 173 211 200 211 217 212 297 313 308 342 236 268 276 252 235 215 195 179 166 161 163 172 206 258 284 301 309 315 321 321
162 162 162 168 175 180 176 182 184 178 169 158 160 158 123 32 356 223 217 213 208 205 194 202 215 208 217 227 249 295 315 317 299 291 295 298 286 276 250 206 191 178 176 178 187 213 249 276 296 312 321 318 317 317
159 163 165 167 165 172 174 184 185 182 201 187 199 260 260 270 273 274 244 224 211 211 207 208 213 195 170 172 290 306 305 308 300 290 290 291 281 250 208 192 184 184 187 198 221 240 259 284 305 311 313 313 314 316
155 155 159 162 166 165 155 184 180 169 176 197 235 258 254 234 253 276 247 226 218 221 222 221 225 239 249 262 274 275 275 277 283 286 283 283 266 225 204 196 193 195 206 224 240 255 282 301 307 313 315 316 319 321
162 161 164 169 172 164 178 186 195 222 220 219 222 272 266 239 243 265 248 233 231 231 230 232 238 242 249 253 259 266 270 277 281 272 268 268 254 216 207 203 205 212 224 238 251 272 289 301 310 314 316 318 320 319
163 164 172 174 184 184 172 178 194 213 228 241 268 282 266 248 242 264 253 244 240 239 239 237 239 241 248 254 259 261 264 263 262 264 262 259 248 227 215 214 220 227 236 249 264 277 290 302 308 312 316 318 319 318
173 178 177 170 173 188 193 184 190 208 231 257 278 273 295 261 244 261 261 248 247 240 233 230 234 241 248 253 255 257 259 258 257 259 254 252 238 223 220 223 230 238 249 259 270 285 299 307 311 316 319 319 320 320
186 187 189 212 207 197 198 210 225 243 254 260 259 263 267 282 272 258 257 250 247 245 240 242 247 251 256 258 258 260 261 255 250 250 250 248 235 226 227 233 240 247 257 268 281 294 303 310 315 318 318 319 319 319
183 202 211 201 194 189 182 200 213 233 255 247 240 246 267 267 264 251 256 267 251 249 252 253 259 264 269 262 255 252 246 242 240 241 242 232 224 228 234 241 250 259 268 275 286 297 305 311 314 316 317 318 319 320
205 209 209 203 200 210 225 237 240 240 218 215 251 277 270 244 245 276 346 300 266 298 317 312 296 276 260 250 239 238 235 234 235 238 240 234 233 236 243 254 263 267 273 283 293 302 308 312 315 317 319 321 322 323
215 218 207 211 231 244 242 248 247 242 243 259 260 247 239 223 259 307 304 297 295 292 297 304 314 322 294 261 248 239 235 237 242 245 245 242 238 238 246 257 266 275 283 290 298 306 312 315 318 320 321 323 325 324
224 231 240 247 241 241 244 243 246 255 265 264 261 277 279 285 278 284 287 289 292 294 295 299 302 300 297 290 274 259 250 247 248 248 243 237 235 238 245 259 269 277 285 295 305 311 314 318 320 322 323 325 326 327
226 228 239 236 235 239 252 263 272 276 275 268 263 266 274 283 293 296 291 287 287 290 296 298 296 292 289 286 277 260 248 242 241 242 240 235 238 245 251 261 271 280 290 301 307 312 316 320 322 324 326 327 328 329
238 238 243 247 246 250 252 257 259 265 270 271 273 272 272 276 281 287 290 286 283 286 290 290 288 287 282 274 268 261 249 245 243 237 233 237 242 246 254 265 274 285 296 305 310 315 320 323 324 326 328 329 330 332
241 242 245 250 255 258 261 262 262 264 266 267 267 270 272 276 280 283 282 281 279 280 281 281 279 277 272 265 261 256 248 245 238 232 232 235 242 248 259 270 281 292 302 309 314 318 322 324 326 329 331 332 334 336
238 239 242 245 249 251 252 253 256 260 263 265 267 269 271 273 275 277 282 282 279 277 277 275 272 268 263 258 252 244 235 231 231 232 233 238 242 248 259 269 282 296 306 312 317 321 325 328 329 332 333 335 338 340